Winner, SD

5:34 AM CDT on March 30, 2017 (GMT -0500)
Winner

Weather History for KICR - November, 2012

Change the Weather History Date:

Friday, November 2, 2012

  Actual Average Record
Temperature  
Mean Temperature 35 °F 43 °F  
Max Temperature 42 °F 54 °F 80 °F (2008)
Min Temperature 27 °F 32 °F 27 °F (2011)
Degree Days  
Heating Degree Days 30 22  
Month to date heating degree days 55 43  
Since 1 July heating degree days 600 641  
Cooling Degree Days 0 0  
Month to date cooling degree days 0 0  
Year to date cooling degree days 1470 916  
Moisture  
Dew Point 31 °F    
Average Humidity 78    
Maximum Humidity 92    
Minimum Humidity 64    
Precipitation  
Precipitation 0.00 in 0.03 in 0.00 in (2017)
Month to date precipitation T 0.07  
Year to date precipitation 10.15 20.70  
Sea Level Pressure  
Sea Level Pressure 30.03 in    
Wind  
Wind Speed 9 mph (ESE)    
Max Wind Speed 22 mph    
Max Gust Speed 26 mph    
Visibility 10 miles    
Events      
T = Trace of Precipitation, MM = Missing Value Source: NWS Daily Summary

Daily Weather History Graph

Daily Weather History Graph

Search for Another Location

Airport or City:

Trip Planner

Search our weather history database for the weather conditions in past years. The results will help you decide how hot, cold, wet, or windy it might be!

Date:

Astronomy

Nov. 02, 2012 Rise Set
Actual Time 8:16 AM CDT 6:28 PM CDT
Civil Twilight 7:46 AM CDT 6:58 PM CDT
Nautical Twilight 7:12 AM CDT 7:32 PM CDT
Astronomical Twilight 6:39 AM CDT 8:05 PM CDT
Moon 9:13 PM CDT (11/2) 11:42 AM CDT (11/2)
Length of Visible Light 11h 11m
Length of Day
10h 12m
Waning Gibbous, 87% of the Moon is Illuminated
Nov 2
Waning Gibbous
Nov 6
Last Quarter
Nov 13
New
Nov 20
First Quarter
Nov 28
Full

Hourly Weather History & Observations

Time (CDT) Temp. Windchill Dew Point Humidity Pressure Visibility Wind Dir Wind Speed Gust Speed Precip Events Conditions
12:53 AM 39.9 °F 31.8 °F 36.0 °F 86% 29.93 in 10.0 mi ESE 15.0 mph - N/A   Clear
1:53 AM 41.0 °F 32.5 °F 35.1 °F 79% 29.91 in 10.0 mi ESE 17.3 mph - N/A   Clear
2:53 AM 39.9 °F 31.4 °F 35.1 °F 83% 29.91 in 10.0 mi ESE 16.1 mph - N/A   Clear
3:53 AM 39.0 °F 31.0 °F 34.0 °F 82% 29.91 in 10.0 mi SE 13.8 mph - N/A   Clear
4:53 AM 37.9 °F 29.2 °F 34.0 °F 86% 29.89 in 8.0 mi SE 15.0 mph - N/A   Clear
5:53 AM 37.0 °F 31.0 °F 34.0 °F 89% 29.91 in 8.0 mi ESE 8.1 mph - N/A   Partly Cloudy
6:03 AM 37.4 °F 32.1 °F 33.8 °F 87% 29.88 in 8.0 mi ESE 6.9 mph - N/A   Mostly Cloudy
6:53 AM 37.0 °F 30.4 °F 33.1 °F 86% 29.94 in 10.0 mi ESE 9.2 mph - N/A   Overcast
7:53 AM 37.0 °F 31.0 °F 32.0 °F 82% 29.98 in 10.0 mi East 8.1 mph - N/A   Overcast
8:53 AM 37.0 °F 30.4 °F 30.9 °F 79% 30.00 in 10.0 mi East 9.2 mph - N/A   Overcast
9:53 AM 36.0 °F 31.1 °F 32.0 °F 86% 30.02 in 10.0 mi ESE 5.8 mph - N/A   Overcast
10:53 AM 37.0 °F 32.4 °F 33.1 °F 86% 30.04 in 4.0 mi North 5.8 mph - N/A   Overcast
11:53 AM 37.0 °F 31.0 °F 30.9 °F 79% 30.07 in 10.0 mi NNW 8.1 mph - N/A   Overcast
12:53 PM 37.0 °F 28.5 °F 30.0 °F 76% 30.09 in 10.0 mi NW 13.8 mph - N/A   Overcast
1:53 PM 37.0 °F 28.1 °F 28.9 °F 73% 30.09 in 10.0 mi NW 15.0 mph - N/A   Overcast
2:53 PM 39.0 °F 31.4 °F 28.9 °F 67% 30.08 in 10.0 mi NNW 12.7 mph - N/A   Overcast
3:53 PM 39.9 °F 32.5 °F 28.9 °F 65% 30.08 in 10.0 mi NW 12.7 mph - N/A   Overcast
4:53 PM 41.0 °F 35.8 °F 30.0 °F 65% 30.09 in 10.0 mi NNW 8.1 mph - N/A   Overcast
5:32 PM 41.0 °F 35.8 °F 30.2 °F 65% 30.06 in 10.0 mi NNW 8.1 mph - N/A   Partly Cloudy
5:53 PM 39.9 °F 35.8 °F 30.0 °F 68% 30.11 in 10.0 mi NW 5.8 mph - N/A   Partly Cloudy
6:53 PM 37.9 °F - 28.9 °F 70% 30.13 in 10.0 mi Calm Calm - N/A   Partly Cloudy
7:53 PM 34.0 °F 29.8 °F 28.0 °F 79% 30.13 in 10.0 mi SSE 4.6 mph - N/A   Partly Cloudy
8:53 PM 32.0 °F 26.4 °F 27.0 °F 82% 30.14 in 10.0 mi South 5.8 mph - N/A   Clear
9:53 PM 34.0 °F 28.8 °F 28.9 °F 82% 30.16 in 10.0 mi SSW 5.8 mph - N/A   Clear
10:53 PM 34.0 °F 29.8 °F 30.0 °F 85% 30.16 in 10.0 mi SSW 4.6 mph - N/A   Clear
11:53 PM 30.9 °F 26.2 °F 28.0 °F 89% 30.17 in 9.0 mi SSW 4.6 mph - N/A   Clear